Satellite-Ground Cal/Val Region Overpasses Predictions

Prediction of Satellite NPP Overpassing Cal/Val Region: PacNW

Region Location: (Latitude: 10.00, Longitude: 139.50) to (Latitude: 22.70, Longitude: 165.60).

Table of predicted overpasses for the next 14.0 days since TLE Epoch: 2/24/2014
Interval Starting Time Starting Location Ending Time Ending Location
1 02/25/2014 02:42:50 ( 10.04, 159.84) 02/25/2014 02:46:25 ( 22.66, 156.83)
2 02/25/2014 15:14:42 ( 22.69, 157.12) 02/25/2014 15:18:18 ( 10.01, 154.09)
3 02/26/2014 02:23:48 ( 10.02, 164.61) 02/26/2014 02:27:24 ( 22.70, 161.58)
4 02/26/2014 14:55:42 ( 22.65, 161.87) 02/26/2014 14:59:17 ( 10.03, 158.86)
5 02/27/2014 03:46:17 ( 10.00, 144.00) 02/27/2014 03:49:53 ( 22.68, 140.97)
6 02/27/2014 14:37:52 ( 18.45, 165.59) 02/27/2014 14:40:15 ( 10.05, 163.62)
7 02/27/2014 16:18:10 ( 22.67, 141.26) 02/27/2014 16:20:13 ( 15.45, 139.50)
8 02/28/2014 03:27:16 ( 10.04, 148.75) 02/28/2014 03:30:51 ( 22.66, 145.74)
9 02/28/2014 15:59:09 ( 22.69, 146.03) 02/28/2014 16:02:45 ( 10.01, 143.00)
10 03/01/2014 03:08:15 ( 10.02, 153.52) 03/01/2014 03:11:50 ( 22.64, 150.50)
11 03/01/2014 15:40:08 ( 22.65, 150.78) 03/01/2014 15:43:43 ( 10.03, 147.76)
12 03/02/2014 02:49:13 ( 10.00, 158.28) 03/02/2014 02:52:49 ( 22.68, 155.25)
13 03/02/2014 15:21:07 ( 22.67, 155.54) 03/02/2014 15:24:42 ( 10.05, 152.53)
14 03/03/2014 02:30:13 ( 10.05, 163.03) 03/03/2014 02:33:48 ( 22.67, 160.02)
15 03/03/2014 15:02:05 ( 22.69, 160.31) 03/03/2014 15:05:41 ( 10.01, 157.28)
16 03/04/2014 02:13:50 ( 19.37, 165.59) 03/04/2014 02:14:46 ( 22.65, 164.78)
17 03/04/2014 03:52:41 ( 10.03, 142.42) 03/04/2014 03:56:09 ( 22.24, 139.51)
18 03/04/2014 14:43:05 ( 22.64, 165.06) 03/04/2014 14:46:40 ( 10.03, 162.04)
19 03/04/2014 16:24:34 ( 22.70, 139.70) 03/04/2014 16:24:47 ( 21.94, 139.50)
20 03/05/2014 03:33:40 ( 10.02, 147.18) 03/05/2014 03:37:16 ( 22.70, 144.15)
21 03/05/2014 16:05:34 ( 22.65, 144.45) 03/05/2014 16:09:09 ( 10.04, 141.43)
22 03/06/2014 03:14:38 ( 10.00, 151.95) 03/06/2014 03:18:14 ( 22.68, 148.92)
23 03/06/2014 15:46:32 ( 22.67, 149.21) 03/06/2014 15:50:07 ( 10.05, 146.19)
24 03/07/2014 02:55:38 ( 10.05, 156.70) 03/07/2014 02:59:13 ( 22.67, 153.68)
25 03/07/2014 15:27:31 ( 22.68, 153.97) 03/07/2014 15:31:07 ( 10.01, 150.95)
26 03/08/2014 02:36:36 ( 10.04, 161.46) 03/08/2014 02:40:11 ( 22.66, 158.45)
27 03/08/2014 15:08:29 ( 22.69, 158.74) 03/08/2014 15:12:05 ( 10.02, 155.71)
28 03/09/2014 02:18:22 ( 12.79, 165.59) 03/09/2014 02:21:10 ( 22.65, 163.21)
29 03/09/2014 03:59:05 ( 10.03, 140.85) 03/09/2014 04:00:43 ( 15.79, 139.51)
30 03/09/2014 14:49:29 ( 22.65, 163.49) 03/09/2014 14:53:04 ( 10.03, 160.47)
31 03/10/2014 03:40:03 ( 10.02, 145.61) 03/10/2014 03:43:38 ( 22.64, 142.60)
32 03/10/2014 14:33:36 ( 11.57, 165.59) 03/10/2014 14:34:02 ( 10.04, 165.24)


NCC Satellite Cal/Val Overpasses Prediction Service
